Location: Newark
(45.9167°N, 5.5000°E)
Time: 21:02:05
(UTC+00:00)

N. Korean satellite - Pass Details

Date: 31 January 2020
Orbit: 456 x 505 km, 97.2° (Epoch: 26 February)

Event Time Altitude Azimuth Distance (km) Brightness Sun altitude
Rises 04:42:56 0° 25° (NNE) 2,562 10.5 -24.3°
Reaches altitude 10° 04:45:19 10° 40° (NE) 1,686 9.8 -23.9°
Maximum altitude 04:48:15 23° 94° (E) 1,095 9.1 -23.4°
Drops below altitude 10° 04:51:11 10° 148° (SSE) 1,694 9.7 -22.9°
Sets 04:53:35 0° 164° (SSE) 2,578 10.5 -22.4°
